FENGYUN 1C DEB

Satellite information

Favourite Embed

Satellite Type and Status

DEBRISIN ORBIT

Key statistics

Satellite FENGYUN 1C DEB at a glance.

Uptime

9554

Days in orbit

Revolutions

≈ 14.2

Per day

Orbit

SSO

Sun Synchronous Orbit

Inclination

98.8

Latest

Satellite identification and parameters

Extended collection of information and parameters for FENGYUN 1C DEB.

Object identification

Identified? True

Debris? True

Object name: FENGYUN 1C DEB

International designator: 1999-025AWU

Object number (NORAD): 30858

Object ID (CCSDS): 30858

Country: PEOPLES REPUBLIC OF CHINA (PRC)

Current information (Y/N): Y

RCS size: SMALL

Orbital parameters

Period: 101.589 minutes

Inclination: 98.8174 deg

SMA: 7212.031 km

Apoapsis: 855.334 km

Periapsis: 812.458 km

RAAN: 245.3862 deg

Eccentricy: 0.0029725

Argument of periapsis: 205.5263 deg

Mean anomaly: 284.069 deg

Mean motion: 14.17478263 rev/day

Mean motion (dot): 0.00000543 rev/day2

B* drag term: 0.00028865 1/REarth

Two-line elements (TLE)

Creation date: July 5, 2025, 5:45 p.m.

Reference frame: TEME

Reference center: EARTH

Epoch: July 5, 2025, 9:19 a.m. UTC

TLE line 0: 0 FENGYUN 1C DEB

TLE line 1: 1 30858U 99025AWU 25186.38825742 .00000543 00000-0 28865-3 0 9994

TLE line 2: 2 30858 98.8174 245.3862 0029725 205.5263 284.0690 14.17478263947081

Live tracking on map

Real-time ground track for satellite FENGYUN 1C DEB.

In-orbit conjunctions

A list of the most updated potential collisions computed for object FENGYUN 1C DEB.

Target Orbit TCA Probability of collision Miss distance Type
COSMOS 1980 DEB LEO 2025-03-23 13:53:57 0.0001454362 415.0 (m) DEBRIS

Associated space launch

Chinese polar orbiting meteorological satellite

FENGYUN 1C DEB was lifted into orbit during the mission ‘Long March 4B | Feng Yun 1C’, on board a Long March 4B space rocket.

The launch took place on May 10, 1999, 1:33 a.m. from Launch Complex 7.

For more information about the launch, click the button.

Launch to space Long March 4B | Feng Yun 1C
Long March 4B | Feng Yun 1C

Agency: N/A

Status: Launch Successful

Launch date: May 10, 1999, 1:33 a.m. UTC

Rocket: Long March 4B

Launch pad: Launch Complex 7

Location: Taiyuan Satellite Launch Center, People's Republic of China

...

Latest news about this satellite

There are no fresh news available about this satellite. Check back as we update our databases every day.


Newsletter sign-up

Weekly statistics, charts and insights to help you stay on top of the space industry.